Location: B�rgermoos
(47.6500°N, 9.0667°E)
Time: 13:27:29
(UTC+00:00)

Vanguard 3 - Pass Details

Date: 07 August 2021
Orbit: 510 x 3260 km, 33.4° (Epoch: 26 September)

Event Time Altitude Azimuth Distance (km) Brightness Sun altitude
Rises 21:35:42 0° 274° (W) 6,535 12.2 -21.3°
Reaches altitude 10° 21:40:54 10° 263° (W) 5,820 11.7 -21.7°
Maximum altitude 21:54:23 26° 217° (SW) 4,975 10.8 -22.7°
Enters shadow 22:02:04 20° 188° (S) 5,305 10.8 -23.3°
